Zurück zum Katalog

CZ-4 DEB

AktivSSO
NORAD 37622·DEBRIS·🇨🇳 China

Gestartet Sep 3, 1990 von Taiyuan Satellite Launch Center

Loading…

Nächste Überflüge (nächste 24 Stunden)

TLE

AktuellSource: Space-Track

Epoche: Sep 13, 2026, 07:55 UTC

1 37622U 90081DJ  26256.33029115  .00001407  00000-0  38281-3 0  9990
2 37622  98.2986 291.1304 0033190  61.4292 359.9752 14.48660390344657

Verfolge CZ-4 DEB in Echtzeit mit AllMySat

Download on the App Store